This is the latest recevied weather packets stored in our database for station/object KC1BRV. If no packets are shown the sender has not sent any weather packets the latest 10 day(s).
| Time | Temp. | Humidity | Pressure | Rain* | Wind** | Luminosity | Snow |
|---|---|---|---|---|---|---|---|
| 1787850002 | 27.78° C | 56% | 1019 hPa | 0 mm | - | 698 W/m² | - |
| 1787849696 | 27.22° C | 56% | 1019.1 hPa | 0 mm | - | 721 W/m² | - |
| 1787849392 | 27.78° C | 57% | 1019.1 hPa | 0 mm | - | 726 W/m² | - |
| 1787849090 | 27.78° C | 62% | 1019.2 hPa | 0 mm | - | 229 W/m² | - |
| 1787848785 | 27.22° C | 62% | 1019.2 hPa | 0 mm | - | 760 W/m² | - |
| 1787848484 | 27.78° C | 62% | 1019.1 hPa | 0 mm | - | 195 W/m² | - |
| 1787848179 | 27.78° C | 62% | 1019.4 hPa | 0 mm | - | 620 W/m² | - |
| 1787847879 | 27.78° C | 61% | 1019.4 hPa | 0 mm | - | 655 W/m² | - |
| 1787847574 | 27.22° C | 61% | 1019.1 hPa | 0 mm | - | 739 W/m² | - |
| 1787847269 | 26.67° C | 64% | 1019.1 hPa | 0 mm | - | 704 W/m² | - |
| 1787846966 | 26.67° C | 61% | 1019.2 hPa | 0 mm | - | 400 W/m² | - |
| 1787846673 | 26.67° C | 62% | 1019.2 hPa | 0 mm | - | 534 W/m² | - |
| 1787846360 | 26.67° C | 60% | 1019.4 hPa | 0 mm | - | 533 W/m² | - |
| 1787846056 | 26.67° C | 62% | 1019.4 hPa | 0 mm | - | 607 W/m² | - |
| 1787845753 | 26.67° C | 62% | 1019.5 hPa | 0 mm | - | 523 W/m² | - |
| 1787845453 | 27.22° C | 63% | 1019.6 hPa | 0 mm | - | 567 W/m² | - |
| 1787845149 | 27.22° C | 63% | 1019.5 hPa | 0 mm | - | 660 W/m² | - |
| 1787844844 | 27.22° C | 65% | 1019.7 hPa | 0 mm | - | 654 W/m² | - |
| 1787844543 | 27.22° C | 67% | 1019.8 hPa | 0 mm | - | 595 W/m² | - |
| 1787844238 | 26.67° C | 68% | 1019.8 hPa | 0 mm | - | 576 W/m² | - |
| 1787843937 | 27.22° C | 64% | 1019.7 hPa | 0 mm | - | 560 W/m² | - |
| 1787843632 | 26.67° C | 67% | 1019.7 hPa | 0 mm | - | 618 W/m² | - |
| 1787843329 | 26.67° C | 70% | 1019.8 hPa | 0 mm | - | 610 W/m² | - |
| 1787843019 | 26.11° C | 69% | 1019.8 hPa | 0 mm | - | 660 W/m² | - |
| 1787842718 | 26.11° C | 70% | 1019.9 hPa | 0 mm | - | 635 W/m² | - |
* Rain latest hour (hover to see other rain measurements)
** Current wind speed in m/s (hover to see current wind gust speed)